Regional Weather Roundup
Issued by NWS

Home | Current Version | Previous Version | Graphics & Text | Print | Product List | Glossary On
Versions: 1 2 3 4 5 6 7 8 9 10 11 12 13 14 15 16 17 18 19 20 21 22 23 24 25 26 27 28 29 30 31 32 33 34 35 36 37 38 39 40 41 42 43 44 45 46 47 48 49 50
000
ASUS43 KLOT 142006
RWRIL

ILLINOIS REGIONAL WEATHER ROUNDUP
NATIONAL WEATHER SERVICE CHICAGO/ROMEOVILLE IL
300 PM CDT SUN SEP 14 2014

NOTE: "FAIR" INDICATES FEW OR NO CLOUDS BELOW 12,000 FEET WITH NO
SIGNIFICANT WEATHER AND/OR OBSTRUCTIONS TO VISIBILITY.

* THESE STATIONS ARE NOT UNDER NWS QUALITY CONTROL. THEY ALSO MAY NOT
  REPORT WEATHER SUCH AS PRECIPITATION OR FOG.

ILZ001-002-007-009-015-016-024-142100-
NORTHWEST ILLINOIS

CITY           SKY/WX    TMP DP  RH WIND       PRES   REMARKS
MOLINE         SUNNY     67  44  43 W9        30.21F
STERLING*      SUNNY     68  45  42 W6        30.21F
SAVANNA*       SUNNY     67  43  41 SW8       30.20F
$$

ILZ003-004-008-010-011-017-018-142100-
NORTH CENTRAL ILLINOIS

CITY           SKY/WX    TMP DP  RH WIND       PRES   REMARKS
ROCKFORD       MOSUNNY   65  43  44 SW10      30.22F
FREEPORT*      SUNNY     64  45  50 W9        30.22F
ROCHELLE*      SUNNY     65  43  44 SW9G16    30.22F
DE KALB*       SUNNY     63  44  51 SW12      30.22F
PERU*          SUNNY     65  44  46 W6        30.22F
$$

ILZ005-006-012>014-019>023-142100-
NORTHEAST ILLINOIS

CITY           SKY/WX    TMP DP  RH WIND       PRES   REMARKS
CHICAGO-OHARE  MOSUNNY   63  42  46 SW7       30.21F
CHICAGO-MIDWAY MOSUNNY   66  43  43 SW8       30.21F
AURORA         SUNNY     65  41  41 SW5       30.22F
LANSING*       SUNNY     64  44  47 W6        30.23F
JOLIET*        SUNNY     65  41  41 S5        30.22F
WAUKEGAN       MOSUNNY   62  44  51 S13       30.21F
DUPAGE AIRPORT MOSUNNY   65  43  44 SW10      30.21F
KANKAKEE*      SUNNY     65  43  43 SW6       30.23F
WHEELING       SUNNY     64  43  46 VRB7G16   30.22F
MORRIS*        SUNNY     66  44  44 SW8       30.21F
ROMEOVILLE*    SUNNY     64  41  42 S6        30.22F
NORTHERLY ISL    N/A     65  40  39 SW5         N/A
$$

LMZ740>746-142100-
SOUTHERN LAKE MICHIGAN

STATION/POSITION SKY/WX   TEMP    WIND        PRES    VSBY  WAVE
                          AIR SEA DIR/SP/G                  HT/PER
                          (F)     (DEG/KT/KT) (MB)    (MI)  (FT/S)
SOUTHERN BUOY              57 65  200/ 12/ 16 1023.7F         1/ 3
WAUKEGAN HARBOR            61     220/ 10/ 16   N/A
HARRISON CRIB              61     220/  7/  9   N/A
BURNHAM HARBOR             65     190/  8/ 12   N/A
CALUMET HARBOR             63     210/  5/ 12 1022.0F
MICHIGAN CITY              61     210/  7/ 11   N/A
MICHIGAN CITY 6N           61 65  210/  4/  6   N/A           1/ 2
ST. JOSEPH                 59 67  260/  8/ 12   N/A           1/ 2
$$

ILZ025>027-034>036-040-047-049-050-058-095>099-142100-
WEST-CENTRAL ILLINOIS

CITY           SKY/WX    TMP DP  RH WIND       PRES   REMARKS
QUINCY         SUNNY     67  45  45 SW6       30.21F
GALESBURG*     SUNNY     69  47  45 SW7       30.22F
MACOMB*        SUNNY     65  43  44 CALM      30.23F
JACKSONVILLE*  SUNNY     69  43  38 CALM      30.23F
PITTSFIELD*    SUNNY     68  44  42 CALM      30.23F
$$

ILZ028>032-037-038-041>044-048-051>054-059>061-142100-
CENTRAL ILLINOIS

CITY           SKY/WX    TMP DP  RH WIND       PRES   REMARKS
PONTIAC        SUNNY     68  41  37 SW6       30.22F
DECATUR        SUNNY     69  44  40 VRB5      30.23F
PEORIA         SUNNY     67  44  43 VRB3      30.22F
LACON*         SUNNY     64  42  44 SW6       30.21F
LINCOLN*       SUNNY     70  41  34 SW5       30.20F
SPRINGFIELD    SUNNY     70  44  39 CALM      30.23F
TAYLORVILLE    SUNNY     66  43  42 W6        30.22F
$$

ILZ033-039-045-046-055>057-062-063-142100-
EAST-CENTRAL ILLINOIS

CITY           SKY/WX    TMP DP  RH WIND       PRES   REMARKS
CHAMPAIGN      SUNNY     68  43  40 CALM      30.23F
DANVILLE*      SUNNY     65  46  49 S3        30.21F
RANTOUL*       SUNNY     69  40  34 CALM      30.24F
MATTOON        SUNNY     67  44  43 VRB5      30.23F
PARIS*         SUNNY     68  44  42 CALM      30.24F
$$

ILZ079-100>102-142100-
SOUTHWEST ILLINOIS

CITY           SKY/WX    TMP DP  RH WIND       PRES   REMARKS
CAHOKIA*       SUNNY     69  44  40 CALM      30.23F
SPARTA*        SUNNY     68  44  42 NW3       30.24F
$$

ILZ064>066-069>071-074>076-080>082-084>086-088>090-092>094-142100-
SOUTH-CENTRAL ILLINOIS

CITY           SKY/WX    TMP DP  RH WIND       PRES   REMARKS
CARBONDALE     SUNNY     69  46  43 CALM      30.23F
CAIRO*         SUNNY     73  51  45 W3        30.22F
EFFINGHAM*     SUNNY     68  42  39 SE3       30.23F
MARION         SUNNY     70  48  46 NW7       30.24F
MT. VERNON     SUNNY     66  46  48 CALM      30.25F
CENTRALIA*     SUNNY     68  42  39 CALM      30.23F
SALEM*         SUNNY     69  49  48 S5        30.24F
METROPOLIS*    SUNNY     73  49  43 N3        30.21F
$$

ILZ067-068-072-073-078-083-087-091-142100-
SOUTHEAST ILLINOIS

CITY           SKY/WX    TMP DP  RH WIND       PRES   REMARKS
LAWRENCEVILLE  SUNNY     70  49  47 VRB3      30.22F
FLORA*         SUNNY     68  44  42 NW3       30.24F
FAIRFIELD*     SUNNY    N/A N/A N/A CALM      30.23F
HARRISBURG*    SUNNY     70  47  44 N5        30.24F
ROBINSON*      SUNNY     70  48  45 SE5       30.24F
CARMI*         SUNNY     72  47  42 CALM      30.22F
$$

ABBREVIATIONS USED IN REMARKS
   TC - TEMPERATURE IN CELSIUS
  WCI - WIND CHILL INDEX
   HX - HEAT INDEX
  VSB - VISIBILITY
$$




USA.gov is the U.S. government's official web portal to all federal, state and local government web resources and services.